Simultaneous Nadir Overpasses (SNOs) Predictions

Prediction of SNOs between FY3D and AQUA Satellite Orbit:

Table of predicted SNOs for the next 14.0 days since TLE Epoch: 8/24/2019
Index Date (FY3D) Time (FY3D) Lat,Lon (FY3D) SZA (FY3D ) Date (AQUA) Time (AQUA) Lat,Lon (AQUA) SZA (AQUA ) Distance(km) Time Diff (sec)
1 08/25/2019 23:16:36 68.43, 55.81 95.08 08/25/2019 23:17:24 68.43, 55.78 95.04 1.47 48
2 08/26/2019 00:06:28 -71.26,-132.64 87.90 08/26/2019 00:06:00 -71.26,-132.63 87.87 0.11 28
3 08/28/2019 15:33:11 67.98, 171.12 96.40 08/28/2019 15:34:01 67.98, 171.13 96.35 0.08 50
4 08/28/2019 16:23:02 -70.87, -17.40 86.62 08/28/2019 16:22:36 -70.88, -17.35 86.61 1.97 26
5 08/31/2019 07:49:45 67.58, -73.48 97.68 08/31/2019 07:50:37 67.58, -73.45 97.62 1.31 52
6 08/31/2019 08:39:18 -71.43, 99.43 86.33 08/31/2019 08:38:55 -71.42, 99.39 86.30 1.64 23
7 09/03/2019 00:06:17 67.28, 42.06 98.86 09/03/2019 00:07:11 67.29, 42.10 98.79 2.20 54
8 09/03/2019 00:55:50 -71.15,-145.17 85.14 09/03/2019 00:55:29 -71.15,-145.18 85.12 0.42 21
9 09/05/2019 16:22:26 68.18, 159.04 98.84 09/05/2019 16:23:23 68.17, 158.99 98.80 2.02 57




NCC Satellite Simultaneous Nadir Overpasses (SNOs) Prediction Service
